Regional Weather Roundup
Issued by NWS

Home | Current Version | Previous Version | Graphics & Text | Print | Product List | Glossary On
Versions: 1 2 3 4 5 6 7 8 9 10 11 12 13 14 15 16 17 18 19 20 21 22 23 24 25 26 27 28 29 30 31 32 33 34 35 36 37 38 39 40 41 42 43 44 45 46 47 48 49 50
000
ASUS43 KMKX 310421
RWRWI

WISCONSIN REGIONAL WEATHER ROUNDUP
NATIONAL WEATHER SERVICE MILWAUKEE/SULLIVAN WI
1100 PM CDT SUN AUG 30 2015

NOTE: "FAIR" INDICATES FEW OR NO CLOUDS BELOW 12,000 FEET WITH NO
SIGNIFICANT WEATHER AND/OR OBSTRUCTIONS TO VISIBILITY.

WIZ001-002-006>008-014>016-023>028-310500-
NORTHWEST WISCONSIN

CITY           SKY/WX    TMP DP  RH WIND       PRES   REMARKS
SUPERIOR ARPT  CLEAR     64  63  96 SW5       29.87F
ASHLAND        CLEAR     68  66  93 SW9       29.90S
HAYWARD        CLEAR     66  63  90 S8        29.94S
SIREN          CLEAR     69  65  89 S8        29.93S
CUMBERLAND     CLEAR     63  61  94 S6        29.96S
RICE LAKE      CLEAR     63  60  93 SE5       29.97S
CHETEK         CLEAR    N/A N/A N/A MISG      29.96S
LADYSMITH      CLEAR     64  63  94 CALM      29.99S
EAU CLAIRE     CLEAR     65  63  93 S6        29.96S
MENOMONIE      CLEAR     63  62  96 S3        29.97R
NEW RICHMOND   CLEAR     65  64  95 S7        29.95F
OSCEOLA        CLEAR     66  66 100 S8        29.96S
$$

WIZ003>005-009-010-017-018-310500-
NORTH CENTRAL WISCONSIN

CITY           SKY/WX    TMP DP  RH WIND       PRES   REMARKS
MANITOWISH WTR CLEAR     65  64  99 SW7       29.97S
ARBOR VITAE    CLEAR     64  63  94 SW6       29.98S
WOODRUFF       CLEAR     64  63  94 SW6       29.98S
RHINELANDER    CLEAR     65  62  90 SW8       30.00R
EAGLE RIVER    CLEAR     64  63  96 SW6       29.97S
LAND O LAKES   CLEAR     65  62  91 CALM      29.98S
PHILLIPS       CLEAR     63  63  99 S5        29.97F
TOMAHAWK       CLEAR     61  59  95 CALM      30.00S FOG
MEDFORD        CLEAR     61  60  99 S3        30.00S
MERRILL        CLEAR     60  60 100 SW3       30.00S
$$

WIZ029-030-035-036-043>047-310500-
CENTRAL WISCONSIN

CITY           SKY/WX    TMP DP  RH WIND       PRES   REMARKS
WAUSAU         CLEAR     65  62  90 CALM      29.98F
MOSINEE        CLEAR     61  61 100 CALM      30.01S
MARSHFIELD     FOG       63  60  90 SW5       30.00S VSB 1/4
STEVENS POINT  CLEAR     62  62  97 SW3       30.00F
WAUPACA          N/A     62  62  97 CALM      30.00S FOG
WAUTOMA        FOG       61  61 100 CALM      30.01S VSB 1/4
WISC RAPIDS    CLEAR     63  60  90 SW3       30.01S FOG
CAMP DOUGLAS   FOG       59  59 100 CALM      30.00S VSB 1/2
$$

WIZ011>013-019>022-031-037>040-048>050-310500-
NORTHEAST WISCONSIN

CITY           SKY/WX    TMP DP  RH WIND       PRES   REMARKS
ANTIGO         CLEAR     63  62  97 W3        30.00F
SHAWANO        CLEAR     67  64  90 SW5       29.98F
OCONTO         CLEAR     64  64 100 SW3       29.97S
STURGEON BAY   CLEAR     64  61  88 S8        30.00S
GREEN BAY      CLEAR     63  62  97 S3        29.99S
MANITOWOC      CLEAR     62  61  96 MISG      30.01S FOG
APPLETON       CLEAR     63  63 100 S6        29.99S
CLINTONVILLE   CLEAR     63  61  94 S3        29.99S
OSHKOSH        CLEAR     60  58  92 S6        30.00S
$$

WIZ032>034-041-042-053>061-310500-
SOUTHWEST WISCONSIN

CITY           SKY/WX    TMP DP  RH WIND       PRES   REMARKS
LA CROSSE      CLEAR     64  62  93 CALM      29.98S
SPARTA         CLEAR     59  58  95 CALM      30.00F
VIROQUA          N/A     64  64 100 S6        30.02S
BOSCOBEL       FOG       62  61  96 CALM      30.01S VSB 1/4
PRAIRIE DU CHI CLEAR     63  61  94 CALM      30.01S
PLATTEVILLE    CLEAR     63  63  99 S5        30.03S
$$

WIZ056-057-062-063-064-067-068-310500-
SOUTH CENTRAL WISCONSIN

CITY           SKY/WX    TMP DP  RH WIND       PRES   REMARKS
REEDSBURG      CLEAR     61  61  99 CALM      30.00F
BARABOO/DELLS  CLEAR     62  60  94 S5        30.02S
LONE ROCK      PTCLDY    60  59  96 E3        30.02F
MINERAL POINT  CLEAR     64  63  94 S3        30.04S
MADISON        MOCLDY    65  62  90 S3        30.02S
MIDDLETON      MOCLDY    60  60  99 CALM      30.04R VSB 1/4
WATERTOWN      CLEAR     61  61 100 CALM      30.03S
MONROE         CLEAR     64  63  94 S5        30.04S
JANESVILLE     CLEAR     63  61  94 CALM      30.03F
$$

WIZ051-052-058>065-066-070>072-310500-
SOUTHEAST WISCONSIN

CITY           SKY/WX    TMP DP  RH WIND       PRES   REMARKS
MILWAUKEE      CLEAR     63  61  93 SW6       30.03S FOG
WAUKESHA       CLEAR     61  61 100 CALM      30.04F
MILWAUKEE/TIMM CLEAR     63  59  88 CALM      30.03F FOG
RACINE         CLEAR     63  60  90 SW5       30.05S FOG
BURLINGTON     CLEAR     57  57  98 CALM      30.04F FOG
KENOSHA        FOG       63  62  97 S6        30.04F VSB 1/2
FOND DU LAC    CLEAR     62  60  93 S5        30.01S
SHEBOYGAN      CLEAR     60  59  96 S6        30.02S FOG
WEST BEND      FOG       61  59  94 CALM      30.03S VSB 1/4
JUNEAU         CLEAR     62  61  96 S3        30.04S
$$

LSZ147-162-310500-
LAKE SUPERIOR

STATION/POSITION TIME  TEMP    WIND        PRES    WAVE
                       AIR SEA DIR/SP/G            HT/PER
                 (UTC) (F)     (DEG/KT/KT) (MB)    (FT/S)
W MID LAKE BUOY  0350   62 55  220/ 12/ 12 1011.1F   1
DEVILS ISLAND    0400   70     210/  9/  9 1011.3R
PORT WING        0300   71     190/  7/ 11 1011.9F
SAXON HARBOR     0340   71     200/  8/ 15 1011.5S
$$

LMZ867-665-643>646-310500-
LAKE MICHIGAN

STATION/POSITION TIME  TEMP    WIND        PRES    WAVE
                       AIR SEA DIR/SP/G            HT/PER
                 (UTC) (F)     (DEG/KT/KT) (MB)    (FT/S)
CHAMBERS ISLAND  0300   65     190/  6/ 12 1014.6S
S GREEN BAY BUOY 0300   66 63  190/ 10/ 12 1016.5S
N MID LAKE BUOY  0350   64 65  210/ 16/ 19 1014.5R   3/ 4
NORTHPORT PIER   0401   63     150/  3/  7 1014.9R
SHEBOYGAN LAKESH 0400   63     190/ 11/ 12 1016.6F
PORT WASHINGTON  0340   55      CALM  /  3 1017.3F
ATWATER BUOY     0400   55 50  170/  6/  6 1017.9F
MILWAUKEE LAKESH 0400   64     210/  4/  4   N/A
S MID LAKE BUOY  0350   67 68  170/  4/  6 1016.7F
KENOSHA   LAKESH 0400   65     200/  6/  7 1016.9S
$$

TC  - TEMPERATURE IN CELSIUS
VSB - VISIBILITY IN STATUTE MILES
WCI - WIND CHILL INDEX
HX  - HEAT INDEX



USA.gov is the U.S. government's official web portal to all federal, state and local government web resources and services.